Date Time,Air Temp,Sky Temp,Clarity,Light Level,Rain Sensor,Readings
2010-10-22 00:00:06,19.2,-18.3,37.5,0.9,2.4,111
2010-10-22 00:05:06,19.0,-18.4,37.4,1.0,2.4,112
2010-10-22 00:10:06,19.0,-18.2,37.1,1.0,2.3,112
2010-10-22 00:15:06,18.9,-18.1,37.0,1.0,2.3,111
2010-10-22 00:20:06,18.9,-18.0,36.9,1.0,2.3,112
2010-10-22 00:25:06,18.9,-17.7,36.6,0.9,2.3,111
2010-10-22 00:30:06,18.9,-17.2,36.0,0.8,2.3,111
2010-10-22 00:35:06,18.9,-16.4,35.3,0.9,2.3,112
2010-10-22 00:40:06,18.9,-14.7,33.7,1.0,2.3,111
2010-10-22 00:45:06,19.0,-12.6,31.6,1.1,2.3,112
2010-10-22 00:50:06,18.9,-14.7,33.6,1.0,2.3,111
2010-10-22 00:55:06,18.9,-14.5,33.4,0.9,2.3,112
2010-10-22 01:00:06,18.9,-16.4,35.3,1.1,2.3,111
2010-10-22 01:05:06,18.8,-16.6,35.4,1.1,2.2,112
2010-10-22 01:10:06,18.8,-15.4,34.2,1.1,2.2,112
2010-10-22 01:15:06,18.8,-15.1,33.9,0.9,2.2,111
2010-10-22 01:20:06,18.8,-16.4,35.2,1.1,2.2,112
2010-10-22 01:25:06,18.8,-16.1,34.9,1.1,2.3,111
2010-10-22 01:30:06,18.8,-16.8,35.6,1.1,2.2,112
2010-10-22 01:35:06,18.7,-17.1,35.8,1.0,2.2,111
2010-10-22 01:40:06,18.6,-16.9,35.6,1.0,2.1,111
2010-10-22 01:45:06,18.6,-16.6,35.2,0.9,2.1,112
2010-10-22 01:50:06,18.6,-15.6,34.2,1.1,2.1,111
2010-10-22 01:55:06,18.7,-10.8,29.4,1.0,2.1,112
2010-10-22 02:00:06,18.8,-10.1,28.9,0.9,2.1,111
2010-10-22 02:05:06,18.9,-10.6,29.5,0.9,2.2,112
2010-10-22 02:10:06,19.0,-12.2,31.2,0.9,2.3,112
2010-10-22 02:15:06,19.1,-14.5,33.6,0.8,2.3,111
2010-10-22 02:20:06,19.0,-15.9,34.9,0.8,2.3,111
2010-10-22 02:25:06,19.0,-15.1,34.1,0.8,2.2,112
2010-10-22 02:30:06,19.0,-13.9,32.9,0.6,2.2,111
2010-10-22 02:35:06,18.9,-12.5,31.4,0.6,2.3,111
2010-10-22 02:40:06,18.9,-12.2,31.1,0.6,2.3,111
2010-10-22 02:45:06,18.8,-12.5,31.3,0.6,2.3,111
2010-10-22 02:50:06,18.8,-11.8,30.6,0.7,2.3,111
2010-10-22 02:55:06,18.8,-11.6,30.4,0.6,2.3,112
2010-10-22 03:00:06,18.8,-11.5,30.2,0.6,2.3,111
2010-10-22 03:05:06,18.8,-10.7,29.4,0.5,2.3,112
2010-10-22 03:10:06,18.7,-10.9,29.7,0.6,2.3,111
2010-10-22 03:15:06,18.8,-11.5,30.3,0.6,2.3,111
2010-10-22 03:20:06,18.8,-11.9,30.7,0.6,2.3,112
2010-10-22 03:25:06,18.8,-12.3,31.0,0.7,2.2,111
2010-10-22 03:30:06,18.8,-12.5,31.2,0.7,2.3,111
2010-10-22 03:35:06,18.8,-14.0,32.8,0.7,2.2,111
2010-10-22 03:40:06,18.8,-14.2,32.9,0.8,2.1,112
2010-10-22 03:45:06,18.7,-14.4,33.1,0.7,2.1,112
2010-10-22 03:50:06,18.8,-14.2,32.9,0.6,2.2,111
2010-10-22 03:55:06,18.7,-13.4,32.2,0.4,2.3,112
2010-10-22 04:00:06,18.7,-12.6,31.3,0.5,2.2,112
2010-10-22 04:05:06,18.6,-12.5,31.1,0.6,2.2,111
2010-10-22 04:10:06,18.7,-12.5,31.1,0.6,2.2,111
2010-10-22 04:15:06,18.7,-12.7,31.4,0.6,2.2,112
2010-10-22 04:20:06,18.7,-12.9,31.6,0.6,2.3,111
2010-10-22 04:25:06,18.8,-13.7,32.4,0.6,2.2,112
2010-10-22 04:30:06,18.8,-13.7,32.5,0.5,2.3,111
2010-10-22 04:35:06,18.8,-13.3,32.1,0.4,2.3,112
2010-10-22 04:40:06,18.7,-13.1,31.8,0.5,2.2,112
2010-10-22 04:45:06,18.7,-12.7,31.4,0.6,2.1,111
2010-10-22 04:50:06,18.6,-12.2,30.8,0.6,2.1,112
2010-10-22 04:55:06,18.7,-12.9,31.6,0.5,2.2,111
2010-10-22 05:00:06,18.8,-12.9,31.6,0.5,2.3,112
2010-10-22 05:05:06,18.8,-13.3,32.1,0.5,2.3,112
2010-10-22 05:10:06,19.0,-13.3,32.3,0.5,2.3,111
2010-10-22 05:15:06,19.0,-14.6,33.6,0.5,2.2,112
2010-10-22 05:20:06,18.8,-14.9,33.7,0.5,2.1,111
2010-10-22 05:25:06,18.6,-15.0,33.6,0.4,2.1,111
2010-10-22 05:30:06,18.6,-15.2,33.9,0.3,2.1,112
2010-10-22 05:35:06,18.6,-15.3,33.9,0.3,2.2,111
2010-10-22 05:40:06,18.6,-14.8,33.4,0.3,2.3,112
2010-10-22 05:45:06,18.6,-14.6,33.2,0.3,2.3,111
2010-10-22 05:50:06,18.7,-14.2,32.9,0.4,2.3,112
2010-10-22 05:55:06,18.9,-13.1,32.0,0.4,2.3,111
2010-10-22 06:00:06,18.9,-12.5,31.5,0.4,2.3,111
2010-10-22 06:05:06,18.9,-12.4,31.2,0.4,2.3,111
2010-10-22 06:10:06,18.8,-12.6,31.4,0.3,2.2,112
2010-10-22 06:15:06,18.9,-12.6,31.5,0.2,2.1,111
2010-10-22 06:20:06,18.9,-13.3,32.2,0.2,2.1,112
2010-10-22 06:25:06,18.9,-14.1,33.0,0.2,2.1,112
2010-10-22 06:30:06,18.8,-13.7,32.5,0.1,2.1,111
2010-10-22 06:35:06,18.7,-11.2,29.9,0.1,2.1,112
2010-10-22 06:40:06,18.8,-11.5,30.3,0.2,2.1,111
2010-10-22 06:45:06,18.8,-10.7,29.5,0.3,2.1,112
2010-10-22 06:50:06,18.8,-8.7,27.5,0.5,2.2,112
2010-10-22 06:55:06,18.9,-8.4,27.3,0.9,2.1,111
2010-10-22 07:00:06,18.9,-10.8,29.7,1.8,2.2,112
2010-10-22 07:05:06,18.9,-13.3,32.2,3.6,2.2,111
2010-10-22 07:10:06,18.8,-14.5,33.2,7.1,2.1,112
2010-10-22 07:15:06,18.7,-15.1,33.8,12.2,2.1,111
2010-10-22 07:20:06,18.8,-15.7,34.5,18.3,2.1,112
2010-10-22 07:25:06,18.8,-14.9,33.7,23.6,2.1,111
2010-10-22 07:30:06,18.8,-17.2,36.1,27.2,2.2,111
2010-10-22 07:35:06,18.8,-18.8,37.6,29.2,2.2,112
2010-10-22 07:40:06,18.8,-18.4,37.1,30.2,2.1,112
2010-10-22 07:45:06,18.7,-18.2,36.9,30.9,2.2,112
2010-10-22 07:50:06,18.7,-18.2,36.9,31.3,2.1,111
2010-10-22 07:55:06,18.6,-18.0,36.7,31.5,2.1,112
2010-10-22 08:00:06,18.6,-18.4,37.1,31.7,2.2,112
2010-10-22 08:05:06,18.7,-18.2,36.9,31.9,2.2,112
2010-10-22 08:10:06,18.8,-17.9,36.8,32.0,2.2,111
2010-10-22 08:15:06,19.0,-17.5,36.5,32.0,2.1,111
2010-10-22 08:20:06,19.1,-16.9,36.0,32.1,2.1,111
2010-10-22 08:25:06,19.2,-16.4,35.5,32.2,2.3,112
2010-10-22 08:30:06,19.3,-16.1,35.3,32.2,2.3,112
2010-10-22 08:35:06,19.4,-15.1,34.5,32.3,2.4,111
2010-10-22 08:40:06,19.6,-15.4,35.0,32.3,2.4,111
2010-10-22 08:45:06,19.8,-14.9,34.7,32.3,2.5,112
2010-10-22 08:50:06,19.8,-15.8,35.6,32.3,2.5,111
2010-10-22 08:55:06,19.7,-15.8,35.5,32.3,2.5,112
2010-10-22 09:00:06,19.8,-16.2,36.0,32.3,2.3,111
2010-10-22 09:05:06,19.9,-16.8,36.7,32.3,2.3,112
2010-10-22 09:10:06,19.9,-16.1,36.0,32.3,2.3,111
2010-10-22 09:15:06,20.0,-12.9,33.0,32.4,2.3,112
2010-10-22 09:20:06,20.3,-14.0,34.3,32.4,2.3,111
2010-10-22 09:25:06,20.8,-15.4,36.2,32.4,2.3,112
2010-10-22 09:30:06,20.6,-14.5,35.1,32.4,2.3,111
2010-10-22 09:35:06,20.7,-14.5,35.2,32.4,2.3,111
2010-10-22 09:40:06,20.8,-12.1,32.9,32.4,2.3,112
2010-10-22 09:45:06,21.1,-11.9,33.0,32.4,2.1,111
2010-10-22 09:50:06,21.4,-10.4,31.8,32.5,1.9,112
2010-10-22 09:55:06,21.6,-9.6,31.2,32.5,2.1,112
2010-10-22 10:00:06,21.7,-8.6,30.3,32.5,2.3,111
2010-10-22 10:05:06,21.9,-8.2,30.1,32.5,2.3,112
2010-10-22 10:10:06,22.2,-8.1,30.2,32.5,2.4,112
2010-10-22 10:15:06,22.5,-9.1,31.5,32.5,2.5,112
2010-10-22 10:20:06,22.7,-7.0,29.6,32.5,2.3,111
2010-10-22 10:25:06,22.9,-4.8,27.7,32.5,2.3,112
2010-10-22 10:30:06,23.1,-3.8,26.9,32.5,2.3,112
2010-10-22 10:35:06,23.2,-5.1,28.3,32.5,2.3,111
2010-10-22 10:40:06,22.8,-3.2,26.0,32.5,2.3,112
2010-10-22 10:45:06,23.3,-3.1,26.5,32.5,2.3,112
2010-10-22 10:50:06,24.0,-2.2,26.1,32.6,2.3,112
2010-10-22 10:55:06,25.3,-6.3,31.6,32.6,2.3,111
2010-10-22 11:00:06,26.0,-14.0,40.0,32.6,2.3,112
2010-10-22 11:05:06,26.1,-14.9,41.0,32.6,2.3,112
2010-10-22 11:10:06,26.0,-15.3,41.3,32.6,2.3,111
2010-10-22 11:15:06,25.7,-15.0,40.7,32.6,2.3,112
2010-10-22 11:20:06,26.4,-14.9,41.3,32.6,2.3,111
2010-10-22 11:25:06,26.6,-14.2,40.8,32.6,2.3,112
2010-10-22 11:30:06,26.8,-14.1,41.0,32.6,2.3,112
2010-10-22 11:35:06,27.0,-13.9,40.9,32.6,2.2,111
2010-10-22 11:40:06,27.3,-13.4,40.7,32.6,2.1,111
2010-10-22 11:45:06,27.5,-13.3,40.8,32.6,2.3,112
2010-10-22 11:50:06,27.4,-13.3,40.7,32.6,2.3,112
2010-10-22 11:55:06,27.5,-13.6,41.0,32.6,2.3,111
2010-10-22 12:00:06,27.7,-13.7,41.4,32.6,2.3,112
2010-10-22 12:05:06,27.9,-13.1,41.0,32.6,2.3,112
2010-10-22 12:10:06,28.0,-13.7,41.7,32.6,2.3,111
2010-10-22 12:15:06,27.9,-13.3,41.2,32.6,2.3,112
2010-10-22 12:20:06,27.9,-13.1,41.0,32.6,2.3,111
2010-10-22 12:25:06,28.0,-12.9,40.9,32.6,2.3,112
2010-10-22 12:30:06,28.1,-12.1,40.2,32.6,2.3,111
2010-10-22 12:35:06,28.4,-10.6,39.1,32.6,2.3,112
2010-10-22 12:40:06,28.6,-9.6,38.2,32.6,2.3,112
2010-10-22 12:45:06,28.9,-8.6,37.4,32.6,2.3,111
2010-10-22 12:50:06,29.1,-10.0,39.1,32.6,2.3,112
2010-10-22 12:55:06,29.2,-9.1,38.3,32.6,2.3,111
2010-10-22 13:00:06,29.3,-9.7,39.0,32.6,2.3,112
2010-10-22 13:05:06,29.3,-9.5,38.8,32.6,2.3,112
2010-10-22 13:10:06,29.6,-8.3,37.8,32.6,2.3,112
2010-10-22 13:15:06,29.8,-6.6,36.4,32.6,2.3,111
2010-10-22 13:20:06,30.1,-2.2,32.3,32.6,2.3,112
2010-10-22 13:25:06,30.3,-0.9,31.1,32.6,2.3,111
2010-10-22 13:30:06,30.3,-4.1,34.4,32.6,2.3,112
2010-10-22 13:35:06,29.8,-8.5,38.4,32.6,2.3,112
2010-10-22 13:40:06,29.5,-10.3,39.9,32.6,2.3,111
2010-10-22 13:45:06,29.1,-12.1,41.2,32.6,2.3,112
2010-10-22 13:50:06,28.1,-8.5,36.5,32.6,2.3,111
2010-10-22 13:55:06,28.9,-8.1,37.0,32.6,2.3,112
2010-10-22 14:00:07,29.4,-8.3,37.7,32.6,2.3,112
2010-10-22 14:05:07,29.0,-7.4,36.4,32.6,2.3,112
2010-10-22 14:10:07,27.6,-3.6,31.2,32.5,2.3,111
2010-10-22 14:15:07,26.5,1.9,24.6,32.5,2.3,112
2010-10-22 14:20:07,24.8,6.9,17.9,32.6,2.3,111
2010-10-22 14:25:07,24.7,3.3,21.4,32.5,2.3,111
2010-10-22 14:30:07,26.4,2.9,23.4,32.6,2.3,111
2010-10-22 14:35:07,28.1,-3.3,31.3,32.6,2.3,112
2010-10-22 14:40:07,28.9,-10.7,39.6,32.6,2.3,112
2010-10-22 14:45:07,27.7,-9.4,37.1,32.5,2.3,111
2010-10-22 14:50:07,26.4,-4.4,30.8,32.5,2.3,112
2010-10-22 14:55:07,25.6,1.9,23.6,32.5,2.2,111
2010-10-22 15:00:07,25.9,-1.6,27.6,32.6,2.2,112
2010-10-22 15:05:07,26.3,-5.3,31.6,32.6,2.3,111
2010-10-22 15:10:07,26.4,-8.4,34.8,32.6,2.3,112
2010-10-22 15:15:07,26.7,-8.6,35.2,32.6,2.3,111
2010-10-22 15:20:07,27.4,-11.5,39.0,32.6,2.3,112
2010-10-22 15:25:07,26.7,-12.4,39.1,32.5,2.3,112
2010-10-22 15:30:07,25.6,-6.9,32.4,32.5,2.2,111
2010-10-22 15:35:07,25.0,-7.3,32.2,32.5,2.3,112
2010-10-22 15:40:07,24.7,-11.1,35.8,32.5,2.3,111
2010-10-22 15:45:07,24.5,-11.3,35.8,32.5,2.3,112
2010-10-22 15:50:07,24.4,-10.8,35.2,32.6,2.3,111
2010-10-22 15:55:07,24.6,-11.1,35.7,32.6,2.3,112
2010-10-22 16:00:07,24.8,-10.0,34.8,32.6,2.3,111
2010-10-22 16:05:07,25.6,-10.3,35.9,32.6,2.3,112
2010-10-22 16:10:07,26.2,-9.7,36.0,32.6,2.1,111
2010-10-22 16:15:07,26.6,-11.5,38.2,32.6,2.3,112
2010-10-22 16:20:07,26.4,-9.7,36.0,32.6,2.3,111
2010-10-22 16:25:07,26.5,-6.5,33.0,32.6,2.3,112
2010-10-22 16:30:07,26.5,-6.6,33.2,32.6,2.3,112
2010-10-22 16:35:07,26.2,-8.4,34.6,32.5,2.3,112
2010-10-22 16:40:07,25.4,-12.5,37.9,32.5,2.2,111
2010-10-22 16:45:07,25.2,-11.3,36.5,32.6,2.3,111
2010-10-22 16:50:07,25.2,-11.3,36.5,32.5,2.3,112
2010-10-22 16:55:07,24.8,-13.4,38.2,32.4,2.3,112
2010-10-22 17:00:07,24.1,-12.9,37.0,32.4,2.3,111
2010-10-22 17:05:07,23.6,-10.5,34.1,32.4,2.3,112
2010-10-22 17:10:07,23.3,-10.5,33.8,32.3,2.2,111
2010-10-22 17:15:07,23.1,-11.4,34.5,32.3,2.3,112
2010-10-22 17:20:07,23.0,-10.9,33.9,32.2,2.3,112
2010-10-22 17:25:07,22.9,-8.9,31.7,32.1,2.3,111
2010-10-22 17:30:07,22.8,-6.1,28.8,32.0,2.3,112
2010-10-22 17:35:07,22.8,-4.5,27.3,31.9,2.3,112
2010-10-22 17:40:07,22.8,-1.5,24.4,31.7,2.3,111
2010-10-22 17:45:07,22.9,-2.0,24.9,31.6,2.3,112
2010-10-22 17:50:07,22.8,-1.6,24.5,31.8,2.3,112
2010-10-22 17:55:07,22.9,-1.0,23.8,31.1,2.3,111
2010-10-22 18:00:07,22.8,0.2,22.7,29.8,2.3,111
2010-10-22 18:05:07,22.8,0.5,22.3,28.5,2.3,112
2010-10-22 18:10:07,22.4,0.8,21.7,26.5,2.3,111
2010-10-22 18:15:07,22.8,-2.6,25.4,24.4,2.3,111
2010-10-22 18:20:07,22.7,-8.0,30.8,20.9,2.3,112
2010-10-22 18:25:07,22.6,-8.9,31.5,15.6,2.3,112
2010-10-22 18:30:07,22.4,-8.4,30.8,10.1,2.3,112
2010-10-22 18:35:07,22.1,-8.1,30.2,6.0,2.2,111
2010-10-22 18:40:07,21.9,-7.9,29.8,3.4,2.2,112
2010-10-22 18:45:07,21.8,-8.6,30.4,1.8,2.3,112
2010-10-22 18:50:07,21.8,-8.5,30.2,1.0,2.3,112
2010-10-22 18:55:07,21.7,-8.2,29.9,0.6,2.3,112
2010-10-22 19:00:07,21.7,-8.8,30.4,0.4,2.3,111
2010-10-22 19:05:07,21.7,-9.4,31.1,0.3,2.3,112
2010-10-22 19:10:07,21.6,-9.3,30.9,0.3,2.3,112
2010-10-22 19:15:07,21.6,-7.4,29.0,0.3,2.3,112
2010-10-22 19:20:07,21.6,-8.3,29.9,0.3,2.3,111
2010-10-22 19:25:07,21.6,-8.7,30.3,0.3,2.3,112
2010-10-22 19:30:07,21.7,-9.0,30.7,0.3,2.3,112
2010-10-22 19:35:07,21.8,-8.6,30.4,0.3,2.3,112
2010-10-22 19:40:07,21.7,-7.8,29.5,0.3,2.3,111
2010-10-22 19:45:07,21.6,-8.2,29.8,0.3,2.3,112
2010-10-22 19:50:07,21.3,-9.8,31.1,0.3,2.3,112
2010-10-22 19:55:07,21.4,-10.2,31.6,0.3,2.3,112
2010-10-22 20:00:07,21.4,-11.0,32.4,0.2,2.3,111
2010-10-22 20:05:07,21.5,-8.7,30.2,0.2,2.3,112
2010-10-22 20:10:07,20.7,0.8,20.0,0.3,2.3,111
2010-10-22 20:15:07,18.4,3.5,14.9,0.3,2.3,111
2010-10-22 20:20:07,17.6,4.0,13.6,0.3,2.0,112
2010-10-22 20:25:07,17.3,1.2,16.2,0.3,1.8,111
2010-10-22 20:30:07,19.4,-7.3,26.7,0.3,2.3,112
2010-10-22 20:35:07,21.2,-9.7,30.8,0.3,2.3,112
2010-10-22 20:40:07,21.5,-11.0,32.5,0.3,2.3,111
2010-10-22 20:45:07,21.6,-8.2,29.8,0.3,2.3,112
2010-10-22 20:50:07,21.7,-5.3,26.9,0.4,2.3,111
2010-10-22 20:55:07,21.4,-2.0,23.4,0.5,2.3,112
2010-10-22 21:00:07,21.9,-2.1,24.1,0.4,2.3,112
2010-10-22 21:05:07,20.5,3.1,17.4,0.5,2.3,111
2010-10-22 21:10:07,18.3,4.9,13.4,0.3,2.3,112
2010-10-22 21:15:07,17.7,5.4,12.3,0.3,2.3,112
2010-10-22 21:20:07,17.5,4.3,13.1,0.3,2.8,111
2010-10-22 21:25:07,17.2,4.2,13.0,0.3,1.8,113
2010-10-22 21:30:07,17.3,4.6,12.7,0.2,1.8,111
2010-10-22 21:35:07,17.3,4.9,12.5,0.2,4.1,112
2010-10-22 21:40:07,17.1,5.5,11.6,0.2,2.5,111
2010-10-22 21:45:07,17.1,5.6,11.5,0.3,1.8,112
2010-10-22 21:50:07,17.3,4.9,12.4,0.5,1.8,112
2010-10-22 21:55:07,17.4,3.9,13.5,0.5,1.8,111
2010-10-22 22:00:07,17.5,4.1,13.4,0.4,1.8,112
2010-10-22 22:05:07,17.5,4.1,13.4,0.3,1.8,112
2010-10-22 22:10:07,17.6,4.5,13.1,0.2,2.2,111
2010-10-22 22:15:07,17.6,4.6,13.0,0.3,2.5,112
2010-10-22 22:20:07,17.5,4.3,13.2,0.3,1.9,112
2010-10-22 22:25:07,17.5,5.3,12.2,0.3,2.1,111
2010-10-22 22:30:07,17.7,4.9,12.8,0.3,1.9,112
2010-10-22 22:35:07,17.8,3.7,14.1,0.5,2.0,111
2010-10-22 22:40:07,17.8,4.9,12.9,0.4,2.1,112
2010-10-22 22:45:07,17.9,5.8,12.1,0.3,2.2,111
2010-10-22 22:50:07,18.0,5.3,12.7,0.1,5.5,112
2010-10-22 22:55:07,17.9,3.9,13.9,0.1,7.0,111
2010-10-22 23:00:07,17.5,4.6,12.9,0.2,2.0,111
2010-10-22 23:05:07,17.4,4.2,13.2,0.2,2.5,112
2010-10-22 23:10:07,17.3,4.2,13.1,0.3,2.8,111
2010-10-22 23:15:07,17.2,4.3,13.0,0.3,2.0,112
2010-10-22 23:20:07,17.3,4.4,12.9,0.3,1.8,111
2010-10-22 23:25:07,17.4,4.8,12.6,0.2,1.8,112
2010-10-22 23:30:07,17.4,4.9,12.6,0.2,1.8,112
2010-10-22 23:35:07,17.5,4.7,12.8,0.3,1.9,112
2010-10-22 23:40:07,17.6,4.2,13.4,0.4,1.9,111
2010-10-22 23:45:07,17.3,3.8,13.5,0.4,1.8,112
2010-10-22 23:50:07,17.6,4.6,13.0,0.3,1.8,112
2010-10-22 23:55:07,17.7,5.3,12.4,0.4,1.8,112
